Theta_e
321 321 322 322 323 322 328 329 330 336 341 341 341 341 341 343 345 332 340 336 331 337 340 341 340 339 338 338 336 333 330 323 321 323 320 319 321 322 323 324 324 324 324 323 323 323 324 327 328
321 321 322 322 321 325 327 327 330 329 331 342 341 340 341 344 345 347 345 340 333 332 339 341 341 338 338 339 337 336 333 327 321 322 319 320 322 323 324 324 325 324 322 323 323 324 323 324 326
320 320 321 318 318 323 326 328 328 328 333 343 343 343 342 345 346 346 344 345 336 333 337 340 341 339 337 339 339 337 337 332 325 321 320 319 321 323 323 324 325 323 321 321 323 323 323 323 324
320 321 320 319 322 323 325 326 326 326 330 341 344 346 345 345 348 344 346 349 336 335 336 338 342 340 337 339 340 338 338 337 330 324 321 320 321 321 322 325 325 322 321 321 322 323 322 322 322
320 320 317 320 321 323 324 327 328 327 329 334 345 344 343 346 351 350 348 347 335 339 341 340 343 341 338 338 340 340 338 338 335 330 324 322 321 322 325 325 323 322 322 322 322 322 321 321 321
320 317 316 320 321 323 323 326 327 327 329 335 343 342 347 350 351 351 350 342 335 338 342 342 343 341 338 337 339 341 340 338 338 332 327 323 322 322 322 324 321 322 323 322 321 321 320 320 320
317 313 316 319 321 323 323 326 328 326 334 336 343 347 350 352 351 351 347 337 334 337 340 341 341 340 336 336 339 340 341 339 338 334 329 324 322 322 322 322 321 322 323 322 321 321 320 320 319
319 314 318 317 320 322 323 323 326 330 333 349 350 348 348 353 353 350 342 337 334 338 339 339 339 337 334 335 338 340 341 340 338 335 331 326 323 321 322 322 321 322 323 322 322 321 321 320 320
319 312 316 318 319 320 322 324 327 330 336 349 349 348 350 353 353 350 342 339 337 338 339 338 336 334 333 335 338 339 340 340 338 334 332 326 323 321 321 322 322 321 322 323 322 322 321 321 320
315 313 314 316 319 322 320 324 325 327 330 341 347 348 351 352 351 349 343 335 336 336 338 338 336 333 331 332 336 338 339 338 335 332 330 325 322 321 321 322 322 322 322 323 323 322 322 321 321
314 314 315 318 320 321 321 324 325 325 326 328 346 348 352 351 351 350 350 347 345 339 338 339 337 333 331 331 332 333 334 333 331 331 330 326 322 321 321 321 321 322 322 323 323 324 322 321 321
317 317 318 320 320 321 320 325 325 326 326 327 347 347 350 351 351 351 351 351 351 351 347 340 338 334 332 330 329 330 330 329 327 326 326 324 321 320 320 321 321 322 323 327 334 339 330 328 328
316 317 319 320 321 321 321 324 325 327 327 327 336 347 347 344 345 348 350 350 348 349 350 337 333 333 331 330 330 329 328 328 326 324 322 321 321 320 320 321 322 325 330 329 337 340 340 341 337
315 317 318 318 320 320 321 323 327 327 327 327 327 327 327 335 336 343 345 347 346 346 347 346 336 332 330 328 328 330 335 344 341 332 330 329 326 323 321 321 322 324 330 335 336 341 342 342 342
316 316 315 315 318 318 321 323 325 328 328 328 328 328 328 327 327 327 330 343 344 342 340 342 337 331 336 334 330 335 342 345 346 343 340 344 343 342 343 340 331 329 330 335 338 339 343 345 345
314 314 315 318 317 319 322 320 323 328 328 328 327 327 327 327 327 327 329 333 342 340 340 337 340 338 333 332 335 338 341 344 346 347 347 346 347 347 347 347 345 345 344 341 343 344 343 343 345
312 314 313 315 317 323 322 324 323 327 328 328 328 327 327 327 327 327 327 332 338 341 340 336 335 337 335 334 335 339 341 345 347 349 348 346 349 347 347 348 348 347 344 342 344 343 346 347 347
313 313 313 317 317 321 325 327 327 326 326 326 326 326 326 327 327 327 329 338 340 340 341 341 338 334 334 335 336 336 340 345 347 350 349 348 347 349 349 349 348 348 346 345 344 343 342 344 343
312 313 314 316 315 325 325 327 326 327 326 324 325 326 326 327 328 327 332 340 341 341 339 339 335 336 336 335 334 335 335 340 348 350 351 350 349 348 349 350 350 346 346 346 341 340 343 340 340
312 313 313 315 322 322 322 326 326 326 326 327 326 325 326 327 327 330 330 337 337 333 333 335 336 336 335 336 336 334 334 344 350 350 348 343 342 342 346 348 350 347 346 346 339 341 340 337 339
312 312 314 319 321 324 325 326 327 326 325 325 327 327 325 327 329 329 331 328 328 328 333 335 337 338 337 336 336 338 344 344 349 347 347 344 343 343 344 344 342 345 341 343 341 341 339 338 339
312 312 314 316 320 320 323 322 321 325 324 321 325 323 325 326 326 330 330 330 329 330 331 331 333 335 336 336 336 335 343 348 348 347 344 344 346 343 344 343 345 344 342 342 340 333 334 337 339
313 313 313 314 318 320 320 323 320 317 325 324 318 325 321 322 324 328 332 331 331 332 333 333 334 335 336 335 336 339 339 346 345 345 344 342 341 341 340 341 340 340 338 338 339 329 335 335 337
313 313 315 314 312 317 317 321 321 318 320 323 320 321 321 319 325 333 334 334 336 336 335 334 334 339 341 342 343 343 343 342 341 339 338 339 337 338 338 339 339 338 337 337 338 339 339 338 337
312 311 314 315 318 319 317 316 318 318 316 318 319 319 318 319 329 339 337 338 336 333 335 336 336 339 338 337 335 330 329 327 326 324 324 325 324 325 327 329 334 335 335 335 334 335 335 335 335
310 312 316 319 319 317 316 318 316 320 323 319 318 318 318 327 337 339 337 334 329 326 325 325 324 325 323 324 324 322 322 321 319 318 317 317 317 317 318 319 321 325 328 331 332 332 332 332 332
313 313 313 316 319 317 317 320 320 322 323 323 317 318 326 336 340 337 333 327 325 324 322 321 322 320 320 319 319 319 318 317 315 315 315 315 315 315 315 315 315 315 316 317 319 325 329 329 329
314 314 317 318 320 321 321 326 320 324 323 324 320 322 329 334 335 333 327 325 325 325 324 325 322 321 321 320 319 317 316 315 315 314 314 314 312 313 313 313 312 312 312 312 312 312 313 315 317
313 315 314 315 315 318 321 322 323 324 322 323 318 324 328 332 332 328 325 325 325 325 325 323 322 322 321 321 319 317 317 316 316 315 315 315 313 312 311 310 309 309 309 309 310 310 310 310 310
312 314 315 316 321 320 319 318 325 324 324 324 320 322 325 329 328 326 326 326 325 325 324 322 321 320 320 318 318 317 317 317 317 316 316 315 313 311 310 310 309 309 309 309 309 309 309 309 309
Wind_Speed
10 7 8 4 3 4 3 5 2 2 2 6 2 5 6 3 4 4 14 24 28 32 32 30 27 24 23 21 19 17 16 16 18 19 19 20 19 19 17 15 12 12 11 11 11 10 10 10 10
6 6 3 2 4 3 5 3 5 5 10 11 12 5 3 6 0 3 24 28 28 32 33 31 28 26 23 21 19 17 16 15 17 19 19 20 19 18 15 13 11 9 9 9 10 9 9 9 9
4 5 1 4 4 5 5 4 4 10 12 4 11 12 7 6 6 5 16 27 34 34 33 31 27 24 23 22 20 17 15 14 15 16 17 18 18 16 13 11 9 8 7 7 7 7 7 8 8
2 0 2 3 6 5 5 3 3 7 14 14 11 6 8 15 9 15 17 23 34 34 32 30 27 23 21 20 19 17 15 12 12 13 15 16 17 15 13 11 8 6 5 5 5 5 5 6 6
3 2 2 2 5 4 6 8 13 4 6 22 20 6 6 5 9 11 29 26 33 33 30 28 25 22 20 19 19 17 15 13 11 10 11 14 14 13 12 10 9 7 5 4 3 3 3 3 4
4 3 2 5 4 4 6 11 9 5 14 10 7 8 4 3 4 9 26 30 31 30 28 26 23 20 19 18 18 17 15 14 12 10 9 10 12 12 11 10 8 7 5 4 3 2 1 1 2
5 3 5 3 2 3 4 6 2 4 8 5 3 3 7 7 7 21 27 30 29 27 26 24 23 20 18 18 18 18 16 14 12 10 9 9 10 11 11 10 8 7 6 4 3 2 2 1 0
6 3 3 4 4 4 2 14 3 8 3 2 1 4 5 13 17 22 23 24 23 24 23 22 20 18 18 18 18 18 16 15 13 11 10 10 10 11 12 11 9 8 6 6 5 4 4 3 2
8 4 4 4 5 3 8 4 5 10 11 9 6 13 17 21 20 19 18 20 21 20 19 18 18 18 17 17 17 17 16 15 14 13 12 12 11 11 12 11 10 9 8 8 7 7 7 6 4
5 5 9 4 4 0 9 3 4 4 11 14 18 21 21 21 19 18 19 21 20 20 20 17 16 15 14 15 16 17 17 16 15 15 14 13 12 12 12 12 11 11 11 10 10 9 9 9 7
7 7 5 3 7 1 6 5 3 11 6 6 13 22 25 22 19 21 22 20 19 17 19 19 17 14 13 13 14 15 16 16 16 16 15 14 14 14 14 14 13 13 12 12 12 12 12 10 10
5 8 7 4 2 3 6 4 5 2 11 14 18 22 25 24 19 18 20 17 15 17 17 19 17 16 15 13 13 13 15 16 16 16 16 16 16 16 16 16 15 15 14 12 9 8 9 10 11
2 2 4 5 7 10 10 3 6 8 12 17 21 17 19 14 10 13 16 16 11 9 15 17 19 20 18 15 13 14 13 16 16 16 17 17 17 17 18 18 18 16 13 13 11 10 7 8 8
4 10 10 3 9 11 3 3 8 11 9 9 17 15 14 13 7 12 19 19 18 13 9 15 19 18 17 15 15 13 12 12 15 19 18 19 19 18 19 19 19 18 17 13 13 13 13 15 16
11 2 7 7 7 6 2 5 7 20 12 11 9 11 11 10 6 5 10 25 27 25 16 16 19 20 18 15 16 14 16 17 16 16 16 14 14 14 14 15 18 17 16 17 18 17 17 17 16
6 3 5 10 10 7 9 9 4 17 14 6 8 6 8 4 3 4 5 14 18 22 22 19 26 26 25 19 15 16 21 19 22 21 19 19 17 17 15 16 16 14 16 18 19 20 21 23 20
5 11 6 5 7 5 7 4 8 15 13 9 5 9 12 5 3 1 5 12 15 20 21 20 22 32 31 23 23 24 26 21 22 26 26 22 19 22 22 22 21 18 22 22 22 24 25 24 22
12 10 5 13 5 5 3 4 3 10 14 15 8 6 10 8 8 6 8 15 18 18 20 23 22 23 33 32 26 30 28 25 30 28 27 25 25 25 24 25 28 27 27 24 24 26 26 28 25
5 6 3 3 7 4 6 5 7 9 7 11 8 6 7 6 8 9 14 17 19 18 17 19 19 21 33 29 23 28 29 33 35 32 30 28 30 28 28 29 28 27 28 27 24 28 32 32 30
1 4 5 2 5 7 5 7 8 8 7 12 11 7 5 6 12 17 20 22 21 16 16 18 12 12 21 33 38 35 30 26 29 30 29 29 30 30 30 32 29 28 27 29 28 29 30 29 32
4 5 2 2 4 2 6 5 3 6 10 11 18 14 6 10 17 22 24 25 22 19 16 17 15 11 14 19 25 32 37 34 29 29 28 27 28 29 29 29 28 27 26 29 31 29 29 32 31
5 7 5 4 2 5 6 6 5 6 9 7 22 15 14 13 15 22 25 25 23 20 19 16 14 14 17 18 19 21 20 23 29 28 30 29 23 21 23 25 30 28 28 30 32 30 29 31 32
5 6 6 5 4 3 3 3 7 0 10 15 12 30 19 16 16 26 27 28 24 21 18 16 15 14 15 15 13 12 13 10 13 16 18 21 23 21 20 21 25 28 30 31 33 31 27 31 29
7 4 1 3 4 2 6 5 4 6 7 8 10 26 24 16 16 30 31 28 26 21 17 15 14 11 8 6 6 7 7 5 7 7 9 10 11 13 14 17 20 22 24 26 26 27 26 28 31
5 6 0 1 1 6 4 1 7 9 8 10 12 26 22 20 30 37 33 29 26 22 20 18 14 14 10 8 9 11 12 11 10 10 9 8 9 10 10 11 11 14 18 19 21 21 17 19 23
6 8 5 4 4 2 2 6 6 0 6 13 21 19 20 31 40 40 35 30 26 23 21 20 17 16 12 10 10 9 8 8 9 10 12 13 14 15 14 13 12 13 13 14 13 13 13 14 14
5 5 9 5 4 3 2 7 1 7 11 14 6 23 33 42 45 40 33 27 23 22 19 14 9 8 7 5 5 7 9 12 17 18 18 20 21 21 21 19 18 17 17 18 18 17 18 19 19
7 7 5 3 6 2 4 4 4 7 9 10 1 16 31 42 43 37 32 27 23 19 15 8 8 8 5 1 4 11 11 13 18 20 21 26 25 26 27 25 23 21 21 21 21 21 21 22 23
2 3 5 4 5 6 2 5 4 2 5 9 3 10 30 46 41 35 31 27 22 17 12 12 10 5 3 5 8 11 15 16 18 19 21 26 27 30 30 28 27 26 25 25 24 25 25 26 27
7 9 7 5 4 3 4 5 3 3 4 10 5 10 21 36 35 32 29 25 20 16 15 12 8 5 6 7 8 9 10 13 16 18 21 25 28 31 31 29 28 27 27 27 28 28 28 29 29
Wind_Direction
289 304 314 332 58 56 271 241 346 220 248 136 292 266 187 238 173 210 152 168 169 171 170 169 172 174 174 169 162 156 150 145 149 152 152 151 149 150 148 144 140 132 128 125 121 122 124 121 116
283 305 309 118 98 103 267 238 204 230 279 187 139 253 179 258 311 159 161 171 173 174 175 174 174 176 177 174 170 163 154 147 150 155 157 158 157 156 154 149 143 136 133 130 127 125 128 131 130
300 319 317 110 123 170 221 188 155 316 341 228 149 180 236 272 302 224 180 172 175 176 176 174 177 179 179 179 176 171 163 153 150 156 161 164 165 165 161 154 147 142 139 134 131 127 130 136 143
279 137 81 109 209 240 226 299 340 332 324 216 177 137 209 241 294 186 183 177 177 176 175 174 176 181 183 184 179 176 173 164 158 160 168 171 170 170 167 162 154 153 148 142 137 133 130 135 141
195 132 79 232 241 249 249 295 297 275 241 250 177 157 131 167 228 189 181 173 178 175 173 174 177 182 185 187 186 181 182 179 173 168 174 182 180 177 175 174 170 170 165 160 153 151 136 137 138
167 130 102 228 222 255 281 289 316 311 354 296 194 120 91 127 176 162 175 172 176 175 172 174 177 185 188 190 191 189 187 191 188 181 186 191 192 189 189 189 188 184 184 180 188 193 159 156 146
148 116 196 232 212 284 254 319 313 313 32 324 186 65 129 126 150 164 170 171 174 174 173 178 179 185 189 194 195 194 193 198 203 198 200 202 200 201 202 202 205 205 204 209 222 237 247 275 299
182 107 183 226 190 252 257 328 350 23 27 93 227 108 81 122 144 157 164 169 175 174 177 182 182 188 192 195 197 198 200 203 207 211 214 214 212 210 212 212 216 226 231 236 246 257 267 274 288
179 85 216 194 160 238 333 334 97 49 55 62 32 104 120 146 149 149 156 164 170 174 181 186 191 194 197 198 199 200 207 211 215 219 223 224 223 223 221 223 226 234 243 252 259 265 270 276 280
146 150 208 217 180 106 316 347 101 70 40 65 78 106 134 152 152 146 145 160 171 178 183 189 199 203 204 207 206 208 214 219 224 229 232 235 232 231 230 230 234 242 249 257 264 268 271 277 280
177 183 207 228 243 19 319 13 25 119 34 69 122 128 133 147 160 159 156 163 169 174 188 191 196 200 213 219 224 224 228 229 234 238 240 243 243 240 235 234 235 242 252 263 270 275 275 274 272
136 207 179 242 232 319 319 350 36 64 131 102 138 142 128 137 152 165 165 170 185 176 187 199 198 200 210 219 237 239 246 249 245 249 252 250 251 250 247 247 248 249 248 252 257 280 279 271 263
154 213 207 236 299 286 286 282 128 111 113 97 116 141 163 156 160 169 181 173 165 184 196 186 199 207 211 215 224 241 246 257 261 257 256 256 256 256 254 254 254 255 254 251 248 266 266 270 273
218 236 266 266 276 286 277 246 137 166 136 109 116 113 124 162 205 220 202 190 194 193 199 216 204 209 218 215 217 224 234 255 264 255 259 261 260 259 260 261 261 260 257 254 253 265 265 269 271
217 8 300 227 228 236 189 272 192 176 165 133 121 120 145 153 172 259 245 231 232 242 225 217 206 202 204 199 206 208 236 233 249 257 247 249 254 256 263 272 269 270 266 261 257 259 265 273 285
157 134 216 244 173 243 159 265 197 168 175 179 148 139 147 168 344 341 253 226 232 224 245 252 222 239 227 222 214 224 234 233 235 247 251 251 252 253 256 266 273 287 280 273 266 266 267 268 272
176 209 201 309 182 165 156 197 255 171 149 147 264 116 139 146 238 226 266 204 207 223 221 223 240 241 237 211 210 240 250 254 257 256 255 264 263 259 262 262 266 274 267 267 274 276 274 272 263
180 187 172 220 197 187 180 211 255 165 157 154 163 271 143 177 191 209 207 187 197 211 227 224 242 226 235 216 226 241 253 266 260 258 261 268 271 265 267 270 268 264 266 267 276 279 272 272 272
129 141 228 131 227 136 195 197 241 232 197 165 183 207 270 167 180 173 175 179 199 216 224 239 248 237 224 221 227 242 258 265 263 259 268 276 281 276 273 271 273 271 264 265 275 279 275 267 270
164 141 202 262 190 169 195 221 228 244 253 253 232 215 205 195 189 180 164 171 186 193 206 220 234 244 246 237 244 255 267 276 269 271 269 270 269 271 270 266 269 273 275 263 269 281 276 269 266
189 155 159 174 180 156 114 304 225 272 276 256 268 274 231 194 177 186 178 174 176 180 185 200 212 219 228 237 251 262 268 264 264 265 262 261 264 263 267 269 269 270 268 265 273 280 272 272 272
183 170 184 247 128 208 158 257 252 230 258 261 254 234 237 211 195 183 180 178 179 177 176 184 196 215 236 246 254 265 274 263 260 266 267 270 271 268 268 267 266 270 269 267 273 281 268 267 266
184 158 192 218 183 136 338 121 269 4 231 253 266 258 232 206 216 188 176 171 167 163 161 165 177 199 228 248 263 265 263 271 267 269 268 270 268 268 269 266 265 267 269 267 278 282 275 273 270
164 134 102 58 129 202 208 182 266 230 210 238 237 247 249 217 177 164 158 160 161 164 168 172 182 188 201 219 239 258 267 291 296 308 314 314 317 299 283 273 272 274 277 279 281 283 280 273 268
121 117 241 216 86 223 196 57 229 255 238 227 234 238 228 196 169 164 163 162 154 150 145 140 141 131 124 114 107 89 83 76 66 57 45 25 13 9 7 2 345 294 285 282 282 284 288 280 275
174 154 152 174 186 294 143 224 244 260 14 338 262 250 205 171 167 163 163 158 151 145 142 140 134 121 112 103 94 82 68 51 30 14 8 1 353 348 339 334 329 326 323 313 305 293 278 272 273
171 140 192 96 22 79 231 285 151 16 3 354 272 176 169 167 167 164 160 159 154 150 144 140 119 123 130 109 57 16 4 4 7 1 355 348 340 334 331 322 315 309 307 305 299 292 284 283 283
166 160 97 355 158 182 275 287 239 354 336 336 284 176 166 164 163 162 161 159 155 154 149 140 135 137 143 171 342 347 346 349 348 351 345 346 342 336 328 322 318 314 311 307 304 299 294 287 282
108 162 64 113 134 165 172 262 211 293 325 327 259 185 166 163 164 163 164 163 160 159 154 153 158 154 234 285 305 325 338 336 336 335 337 335 335 333 329 320 316 314 311 307 305 302 298 292 290
165 172 151 128 199 140 159 259 196 254 12 16 133 143 166 164 165 167 165 165 165 164 165 168 175 209 241 256 275 295 303 309 314 320 323 323 329 332 327 323 320 318 316 312 310 309 307 305 302